Dewpoint
68 70 70 70 69 68 68 67 67 67 67 67 67 67 67 66 66 65 63 62 62 62 60 60 59 58 58 59 61 61 61 62 61 60 60 61 61 60 62 63 63 63 63
68 69 69 69 68 68 67 67 67 67 67 68 67 66 66 66 65 64 62 62 63 62 61 61 60 60 60 60 61 60 60 61 61 60 59 57 58 58 59 61 62 62 62
68 69 69 69 68 68 67 67 66 67 67 68 67 66 66 65 64 63 62 62 63 62 61 61 61 62 62 62 62 62 61 61 61 60 60 57 56 56 56 58 57 56 57
68 67 67 68 68 68 67 67 66 67 67 68 66 66 65 65 63 62 61 62 63 62 60 59 59 59 61 62 62 61 60 59 59 58 56 55 56 59 58 58 55 56 56
62 66 65 66 67 65 67 67 66 67 67 67 67 65 65 64 63 61 60 61 62 61 59 58 56 58 62 62 61 60 59 58 57 56 55 55 56 57 58 57 57 54 53
61 65 67 66 67 66 65 66 66 67 66 67 67 65 64 64 63 62 60 61 62 60 57 55 58 60 62 61 60 59 58 57 56 55 55 55 55 56 55 56 54 52 52
60 61 64 64 65 65 64 64 65 67 66 67 66 65 65 64 63 62 61 61 60 58 56 56 61 62 62 60 59 58 57 56 53 53 54 54 55 54 53 53 52 52 52
64 62 62 64 63 64 65 64 64 66 66 66 66 65 65 64 63 63 62 62 60 59 57 57 60 61 60 59 58 57 56 55 54 54 54 54 55 54 53 53 52 52 52
65 65 63 64 62 63 65 62 61 66 65 65 65 65 65 65 64 63 62 60 58 57 56 56 56 58 59 58 57 56 56 55 53 53 53 54 54 53 53 52 52 51 51
64 65 64 62 60 62 60 59 60 65 65 65 66 67 66 65 64 62 61 59 57 57 57 55 55 58 58 59 56 56 56 54 53 53 54 54 53 53 52 52 51 51 50
62 64 64 60 59 58 59 59 59 64 66 66 67 66 65 64 63 60 60 58 57 56 54 54 52 56 59 58 57 56 53 53 53 54 55 55 53 53 52 51 51 50 50
59 62 62 60 59 57 57 57 54 57 63 64 64 63 63 62 60 60 59 56 54 54 53 52 51 47 49 53 56 54 53 54 54 55 56 55 53 52 52 52 52 51 49
59 60 61 60 60 58 56 54 54 56 60 59 60 61 61 61 61 59 58 57 56 53 51 47 48 45 44 49 51 52 54 55 55 56 57 56 53 53 53 54 53 52 51
59 59 59 59 58 58 56 56 57 57 58 58 59 60 60 58 57 57 56 56 53 52 48 48 46 44 40 45 48 51 53 54 55 56 57 56 54 53 54 54 54 52 51
57 59 59 58 57 55 55 55 57 59 57 57 58 57 56 55 54 55 54 53 51 49 48 48 45 42 39 36 40 47 49 52 53 55 56 57 56 54 53 55 54 52 50
55 58 59 59 58 56 54 55 60 58 57 57 56 54 54 53 53 53 52 51 50 48 49 48 44 41 36 34 35 39 44 46 46 49 51 53 55 56 54 54 54 54 51
54 55 58 59 59 57 57 59 59 58 57 57 55 54 53 53 52 52 50 50 50 48 50 48 45 44 37 34 33 37 40 40 40 41 44 47 50 52 54 55 54 54 53
54 54 55 58 58 57 57 57 57 56 57 56 56 55 54 53 54 52 51 51 52 51 50 49 46 44 39 33 33 33 36 37 40 41 42 46 47 49 51 53 56 54 54
53 54 54 56 56 56 55 54 52 51 53 53 55 55 54 54 55 54 53 53 53 52 51 49 47 44 40 35 33 33 35 34 33 40 43 45 46 47 51 56 56 55 53
53 54 54 54 55 55 53 52 52 51 47 47 49 54 55 55 57 56 56 55 54 52 52 49 46 44 41 38 34 33 35 35 34 35 42 45 46 46 50 53 54 53 52
52 52 54 54 54 54 53 52 52 52 49 45 45 49 49 53 57 57 56 56 53 52 51 50 46 43 41 39 36 37 38 38 37 34 38 42 42 45 47 49 48 47 48
52 52 53 53 52 53 53 53 52 51 50 46 45 46 49 52 53 56 56 56 54 51 50 49 45 42 40 40 36 39 36 39 39 37 35 37 37 43 45 46 46 45 45
50 51 51 51 50 49 49 49 49 50 49 47 47 46 47 52 53 55 57 56 55 53 51 50 47 43 39 40 41 37 37 35 37 38 37 36 35 37 43 44 44 43 42
50 51 51 50 50 48 48 46 46 46 46 46 46 46 47 50 53 53 55 56 56 55 53 51 50 46 43 38 41 42 39 38 34 33 34 37 37 34 34 37 39 40 40
49 50 50 50 49 48 48 47 46 46 46 47 47 47 47 51 54 55 56 55 56 55 54 52 51 47 46 43 41 42 41 38 39 37 36 35 36 37 36 35 34 34 34
48 49 50 49 49 48 48 48 47 47 48 48 49 49 50 52 54 56 56 56 56 55 55 53 52 50 47 45 44 43 42 42 40 37 36 36 33 34 36 37 36 35 35
Wind_Speed
12 15 19 20 21 23 24 34 24 21 22 26 29 31 33 31 30 31 30 31 31 30 31 31 30 30 30 29 27 26 26 24 25 25 24 26 25 24 27 26 25 23 28
10 16 22 20 20 23 28 31 24 28 21 24 26 29 32 32 32 31 32 33 31 31 31 31 31 30 30 29 26 25 25 23 23 24 24 25 27 25 26 27 26 27 28
12 16 20 22 20 19 19 26 31 25 22 23 25 28 30 30 32 31 31 31 32 31 32 30 28 26 25 21 21 24 24 23 20 21 20 17 21 24 25 26 25 25 25
17 16 18 24 22 23 23 21 24 28 22 23 25 27 29 29 30 29 30 31 31 30 30 27 24 21 19 17 23 23 24 24 22 20 15 18 19 24 25 25 24 25 26
4 12 14 19 21 22 21 29 26 25 23 24 26 27 28 28 29 30 29 29 29 29 28 25 22 21 22 26 24 23 23 24 22 20 19 16 15 23 25 26 24 24 24
6 5 14 18 23 23 17 16 21 25 24 23 25 26 28 28 28 28 28 28 27 28 26 23 19 20 26 26 25 24 22 22 21 18 15 16 16 22 23 23 23 23 23
15 12 15 11 20 30 25 21 15 22 22 23 26 26 27 29 27 26 27 27 26 26 25 23 23 28 25 25 25 24 20 20 19 18 16 15 18 22 22 22 22 22 23
18 20 18 18 21 31 33 33 25 24 23 25 26 25 27 27 27 26 25 25 24 24 23 23 26 26 25 23 23 22 19 17 17 18 16 15 20 21 21 21 21 21 22
9 12 16 13 11 12 18 31 28 26 25 25 27 25 25 25 25 25 24 24 23 24 25 24 23 22 22 23 22 21 18 17 17 15 14 13 19 19 20 20 20 20 21
8 13 18 19 24 22 34 23 21 20 24 25 25 22 23 24 24 23 23 22 22 24 25 25 20 21 20 22 22 20 18 16 16 15 13 14 17 18 18 18 19 19 19
14 14 18 27 30 28 25 18 12 22 23 22 22 23 23 18 18 17 20 20 20 22 23 24 22 23 23 24 22 19 15 14 14 12 12 15 16 16 16 16 17 17 17
14 19 26 28 25 29 31 27 10 8 17 15 16 16 16 16 14 16 20 21 20 21 21 21 24 22 18 15 14 15 15 14 12 11 11 14 14 14 13 15 15 15 14
13 12 16 20 27 26 25 22 13 5 4 7 14 14 17 16 15 13 14 12 13 16 14 15 15 16 17 15 14 14 13 13 10 8 10 12 12 12 13 13 13 14 13
13 15 17 18 23 24 25 30 28 21 17 13 12 15 18 17 15 14 13 15 15 12 15 15 14 15 15 16 16 16 15 12 9 8 7 9 10 12 12 14 14 14 12
11 15 20 18 19 23 23 23 24 22 21 16 18 15 15 16 17 16 15 14 15 11 15 15 15 13 14 13 12 15 14 13 11 9 7 8 8 11 12 13 13 14 15
6 10 15 20 19 19 20 22 19 15 15 14 15 17 16 15 16 15 17 15 14 13 13 16 15 14 11 13 11 11 12 11 10 9 7 6 6 8 9 12 12 13 13
7 4 13 18 20 21 18 16 16 15 17 15 15 16 17 15 17 16 17 15 13 12 13 13 10 9 10 8 12 11 11 9 9 10 8 6 5 7 8 11 13 12 12
7 8 2 14 16 15 14 10 11 12 15 14 13 16 15 16 16 17 16 16 13 12 12 14 13 11 10 11 10 10 10 8 9 9 8 8 7 6 7 9 12 12 13
7 8 8 5 20 16 14 12 11 10 10 10 12 15 14 16 15 15 15 14 14 12 12 15 10 10 12 9 8 8 8 9 8 7 11 10 9 8 6 7 12 12 13
7 6 10 9 16 18 13 15 11 8 6 12 9 14 16 11 12 13 11 14 13 12 12 12 13 7 8 11 8 8 6 6 5 7 12 11 11 10 8 8 9 10 13
9 9 9 15 15 18 18 20 14 15 10 15 13 11 9 9 10 14 12 12 12 16 17 17 10 12 7 9 7 3 5 6 7 9 10 11 11 11 11 12 11 11 11
11 12 11 11 17 17 13 15 11 13 5 7 8 6 10 7 7 10 13 12 12 12 12 16 13 8 8 14 7 2 3 5 8 13 12 14 13 9 12 12 13 14 14
16 14 13 14 12 10 13 13 11 7 4 7 9 9 12 6 8 9 8 12 14 14 17 19 17 16 14 13 7 6 3 10 1 2 11 11 11 12 14 15 16 15 16
19 16 14 13 14 11 9 11 15 19 18 14 12 10 15 13 13 12 14 16 17 17 18 19 16 14 12 15 7 6 2 5 5 3 4 7 12 15 17 15 16 18 17
18 18 17 16 16 14 14 14 15 13 11 8 10 14 15 15 16 17 16 19 18 15 17 18 15 17 13 11 10 5 4 3 3 8 10 7 5 12 14 16 17 17 15
15 15 17 19 20 21 20 20 21 20 19 18 17 18 17 16 16 19 19 18 18 17 17 17 16 17 19 16 16 14 11 7 11 9 10 11 8 5 8 9 11 13 15
Wind_Direction
159 147 129 124 124 119 113 116 140 121 120 122 123 125 124 122 120 118 115 113 111 109 108 105 103 100 98 95 93 91 89 89 88 84 82 84 82 82 76 72 73 72 71
155 145 129 124 124 132 128 131 132 123 128 129 129 129 126 126 124 121 120 117 114 114 111 108 105 102 99 97 96 94 89 81 81 85 86 86 85 81 76 72 72 72 67
160 139 135 134 134 127 121 119 120 127 136 139 137 133 131 129 126 124 121 119 118 115 113 111 109 108 110 100 102 101 96 88 82 84 82 83 84 83 83 75 73 70 68
162 152 149 142 137 127 121 120 130 128 144 144 141 138 130 125 123 121 118 118 116 115 113 112 112 111 111 117 110 103 99 92 84 75 66 84 82 84 82 81 78 79 77
152 159 164 152 140 136 128 139 135 136 148 148 148 138 128 126 123 119 119 118 116 115 114 111 110 113 106 108 106 102 100 94 85 75 71 74 88 86 82 81 78 78 76
210 161 165 162 143 123 136 138 142 142 153 152 145 136 131 127 122 120 118 116 117 115 111 108 108 119 119 112 107 102 100 98 92 86 81 81 84 87 85 83 82 80 79
213 207 187 187 162 150 157 149 168 146 152 155 146 138 132 125 123 120 116 114 114 109 107 100 97 117 118 113 112 109 106 102 99 93 90 88 90 89 87 89 88 85 84
211 194 206 201 201 171 161 155 160 152 156 156 141 140 133 130 125 119 114 112 110 107 104 97 98 112 114 115 115 112 109 108 100 97 91 87 94 94 95 95 93 92 88
139 177 198 177 198 206 141 138 168 150 156 153 144 142 135 128 123 120 117 115 112 106 102 96 96 107 123 125 118 114 115 110 104 101 98 95 102 102 101 100 96 92 89
118 134 127 111 106 98 122 133 179 141 152 153 142 139 131 126 124 123 119 118 116 108 103 98 91 97 128 128 122 121 119 114 110 108 106 111 111 108 105 99 97 94 91
110 123 123 115 120 112 118 127 186 154 137 132 128 129 123 122 125 122 122 118 112 104 101 102 101 96 112 124 126 123 119 114 113 113 111 115 112 109 107 104 103 98 95
112 127 129 136 141 138 140 142 212 226 142 130 142 134 123 127 133 129 127 125 119 110 108 101 101 101 113 119 119 122 121 122 122 123 122 119 116 113 113 115 116 108 101
112 110 125 131 145 140 141 143 156 228 303 150 149 140 131 126 127 130 131 125 116 117 109 96 97 102 114 128 125 124 123 122 128 130 134 134 126 125 128 128 127 122 119
142 136 138 142 142 146 152 154 165 175 198 193 159 150 139 137 142 141 139 134 128 124 117 109 111 113 112 128 132 136 131 137 140 143 153 147 145 145 149 141 141 135 130
133 155 154 154 151 154 158 156 168 183 181 169 159 153 148 150 150 147 149 138 137 147 131 128 125 123 119 122 135 141 143 145 148 149 153 165 183 164 160 159 158 155 150
146 155 162 159 158 163 164 170 180 167 164 160 163 157 156 155 148 153 146 151 153 158 145 141 142 136 135 133 135 137 146 153 158 154 150 161 186 188 184 175 176 174 164
131 117 183 166 161 173 172 176 175 163 162 164 167 159 152 150 151 160 151 159 168 166 145 129 123 125 142 138 136 145 153 169 170 163 157 173 192 205 195 195 186 183 175
145 147 94 174 159 150 142 144 153 152 164 166 170 152 151 151 159 153 159 172 177 164 149 153 156 164 159 156 160 163 164 174 184 174 169 181 192 190 208 213 188 192 192
160 154 151 164 152 137 125 111 119 134 151 158 159 138 154 155 167 156 174 183 173 174 172 163 171 175 179 172 178 184 183 184 187 182 186 193 192 185 195 202 192 196 193
151 156 132 126 143 136 126 114 103 103 138 140 138 145 156 156 179 176 184 197 175 180 183 175 178 176 180 187 189 193 206 213 186 209 207 197 192 188 187 190 193 201 203
162 159 166 148 132 146 152 145 141 161 186 177 165 163 133 171 172 182 184 175 181 183 192 190 176 186 181 174 154 211 229 223 225 224 225 223 207 201 198 194 196 202 206
179 178 174 165 162 159 157 161 153 173 231 206 185 207 190 211 201 197 190 187 192 193 187 187 181 173 196 179 173 127 227 246 227 216 214 221 221 218 215 213 214 212 211
191 185 175 174 167 158 164 168 141 174 231 236 231 236 262 258 229 219 195 203 204 200 202 202 202 191 188 196 192 165 178 232 263 208 222 221 223 216 221 220 223 225 221
192 184 185 175 178 170 165 182 188 196 200 214 220 237 254 271 267 249 231 222 213 208 212 212 199 205 182 194 213 218 159 155 185 298 241 228 224 226 225 227 226 230 223
183 185 184 181 185 188 182 190 194 201 214 229 223 232 245 255 252 244 224 219 218 210 213 205 197 206 200 197 188 165 193 170 127 225 240 251 257 240 226 227 228 235 232
186 187 188 192 195 194 195 199 197 199 207 214 224 228 233 238 243 238 230 215 213 213 207 202 205 210 210 215 202 194 181 181 209 206 226 247 246 259 243 245 244 242 247